Location: Unspecified
(0.0000°N, 0.0000°E)
Time: 01:04:10
(UTC+00:00)

deb Kosmos-1275 - Pass Details

Date: 15 March 2026
Orbit: 936 x 1103 km, 82.9° (Epoch: 14 April)

Event Time Altitude Azimuth Distance (km) Brightness Sun altitude
Rises 05:21:04 0° 166° (SSE) 3,607 ? -12.0°
Reaches altitude 10° 05:23:46 10° 156° (SSE) 2,673 ? -11.3°
Maximum altitude 05:29:14 35° 92° (E) 1,521 ? -9.9°
Drops below altitude 10° 05:34:49 10° 29° (NNE) 2,747 ? -8.5°
Sets 05:37:36 0° 21° (NNE) 3,720 ? -7.8°
